DW9167 Weather Reports


Display with metric or nautical units.
time (UTC)temp
F
wind
direction
speed
MPH
gust
MPH
rain 1hr
in
rain 24hr
in
rain mn
in
humidity
%
barometer
mb
20260901192530 97 358 0.0 3.0 0.00 0.00 0.00 44 1004.5
20260901191532 98 135 0.0 0.0 0.00 0.00 0.00 46 1004.9
20260901190629 97 135 0.0 0.0 0.00 0.00 0.00 44 1004.9
20260901185631 96 135 1.0 2.0 0.00 0.00 0.00 46 1005.6
20260901183631 94 283 3.0 8.0 0.00 0.00 0.00 47 1005.6
20260901182631 94 292 0.0 0.0 0.00 0.00 0.00 48 1005.9
20260901181632 94 162 1.0 6.0 0.00 0.00 0.00 47 1006.6
20260901180632 93 67 0.0 3.0 0.00 0.00 0.00 49 1006.2
20260901174731 94 105 0.0 4.0 0.00 0.00 0.00 48 1006.4
20260901173730 95 180 1.0 6.0 0.00 0.00 0.00 47 1006.6
20260901172829 94 139 0.0 3.0 0.00 0.00 0.00 51 1006.9
20260901171831 93 54 3.0 5.0 0.00 0.00 0.00 50 1007.3
20260901170930 93 124 2.0 5.0 0.00 0.00 0.00 51 1007.6
20260901165930 92 135 0.0 0.0 0.00 0.00 0.00 52 1007.6
20260901164929 92 360 0.0 3.0 0.00 0.00 0.00 54 1007.6
20260901163930 91 300 1.0 3.0 0.00 0.00 0.00 51 1007.6
20260901162930 91 180 0.0 0.0 0.00 0.00 0.00 56 1007.6
20260901162029 90 214 0.0 2.0 0.00 0.00 0.00 61 1008.0
20260901160031 88 273 1.0 4.0 0.00 0.00 0.00 61 1008.0
20260901155030 87 356 1.0 4.0 0.00 0.00 0.00 65 1008.0
20260901154031 86 292 0.0 0.0 0.00 0.00 0.00 67 1008.0
20260901153032 84 180 0.0 0.0 0.00 0.00 0.00 72 1008.3
20260901152032 83 229 1.0 4.0 0.00 0.00 0.00 72 1008.7
20260901151130 82 180 0.0 1.0 0.00 0.00 0.00 78 1008.6
20260901150130 82 299 2.0 5.0 0.00 0.00 0.00 79 1008.7
20260901145130 81 180 0.0 0.0 0.00 0.00 0.00 82 1009.0
20260901143128 80 270 0.0 0.0 0.00 0.00 0.00 87 1009.4
20260901142130 80 297 4.0 6.0 0.00 0.00 0.00 88 1009.4
20260901141129 79 180 1.0 6.0 0.00 0.00 0.00 91 1009.4
20260901140146 78 320 2.0 6.0 0.00 0.00 0.00 92 1009.4
20260901135130 78 180 0.0 0.0 0.00 0.00 0.00 95 1009.7
20260901134129 78 180 0.0 1.0 0.00 0.00 0.00 96 1009.4
20260901133130 77 180 0.0 0.0 0.00 0.00 0.00 97 1009.4
20260901132129 77 270 0.0 0.0 0.00 0.00 0.00 97 1009.4
20260901131129 76 197 0.0 1.0 0.00 0.00 0.00 97 1009.7
20260901130131 75 315 0.0 0.0 0.00 0.00 0.00 96 1009.4
20260901125131 75 315 0.0 0.0 0.00 0.00 0.00 94 1009.4
20260901124129 74 315 0.0 0.0 0.00 0.00 0.00 94 1009.4
20260901123131 74 315 0.0 0.0 0.00 0.00 0.00 93 1009.4
20260901121129 75 315 0.0 0.0 0.00 0.00 0.00 95 1009.0
20260901120131 75 300 2.0 5.0 0.00 0.00 0.00 94 1009.0
20260901115230 75 315 0.0 0.0 0.00 0.00 0.00 92 1009.0
20260901114231 75 180 0.0 0.0 0.00 0.00 0.00 95 1009.0
20260901113330 75 180 0.0 0.0 0.00 0.00 0.00 95 1009.0
20260901112330 75 180 0.0 0.0 0.00 0.00 0.00 96 1009.0
20260901111331 75 315 0.0 0.0 0.00 0.00 0.00 96 1009.0
20260901110330 75 315 0.0 0.0 0.00 0.00 0.00 96 1009.0
20260901105346 76 315 0.0 0.0 0.00 0.00 0.00 97 1009.0
20260901104329 76 212 0.0 4.0 0.00 0.00 0.00 97 1009.0
20260901103330 76 135 0.0 1.0 0.00 0.00 0.00 97 1008.7
20260901101331 76 180 1.0 2.0 0.00 0.00 0.00 97 1008.3
20260901095329 77 160 0.0 3.0 0.00 0.00 0.00 97 1008.7
20260901094429 77 166 1.0 5.0 0.00 0.00 0.00 97 1008.7
20260901093429 77 180 1.0 4.0 0.00 0.00 0.00 97 1008.7
20260901091429 77 180 0.0 3.0 0.00 0.00 0.00 96 1009.0
20260901090528 77 180 0.0 1.0 0.00 0.00 0.00 95 1008.7
20260901085529 77 167 1.0 4.0 0.00 0.00 0.00 95 1008.7
20260901083529 78 167 1.0 4.0 0.00 0.00 0.00 93 1008.7
20260901082528 78 157 0.0 2.0 0.00 0.00 0.00 93 1008.7
20260901081531 78 180 0.0 0.0 0.00 0.00 0.00 92 1008.7
20260901075529 78 180 0.0 2.0 0.00 0.00 0.00 91 1008.3
20260901074529 78 180 0.0 0.0 0.00 0.00 0.00 88 1008.3
20260901073533 78 180 2.0 5.0 0.00 0.00 0.00 88 1008.3
20260901072532 79 180 0.0 1.0 0.00 0.00 0.00 87 1008.3
20260901071629 79 180 0.0 2.0 0.00 0.00 0.00 87 1008.3
20260901070629 79 180 0.0 0.0 0.00 0.00 0.00 86 1008.3
20260901065630 79 180 0.0 0.0 0.00 0.00 0.00 84 1008.3
20260901064631 79 180 0.0 0.0 0.00 0.00 0.00 83 1008.3
20260901063729 80 180 0.0 0.0 0.00 0.00 0.00 81 1008.3
20260901062732 80 180 0.0 2.0 0.00 0.00 0.00 80 1008.3
20260901061730 79 180 1.0 3.0 0.00 0.00 0.00 78 1008.0
20260901060728 80 180 0.0 0.0 0.00 0.00 0.00 76 1008.0
20260901055729 81 180 0.0 1.0 0.00 0.00 0.00 75 1008.0
20260901053730 81 180 2.0 5.0 0.00 0.00 0.00 75 1007.6
20260901052729 81 211 0.0 3.0 0.00 0.00 0.00 74 1007.6
20260901051731 82 180 1.0 3.0 0.00 0.00 0.00 73 1007.6
20260901050828 82 138 1.0 4.0 0.00 0.00 0.00 72 1007.6
20260901043835 82 180 0.0 1.0 0.00 0.00 0.00 66 1007.3
20260901042834 83 164 1.0 4.0 0.00 0.00 0.00 66 1007.3
20260901041834 83 157 1.0 2.0 0.00 0.00 0.00 65 1007.3
20260901040834 83 157 0.0 1.0 0.00 0.00 0.00 63 1007.3
20260901035832 84 180 0.0 0.0 0.00 0.00 0.00 62 1006.9
20260901034833 84 176 1.0 4.0 0.00 0.00 0.00 61 1006.9
20260901033833 85 138 1.0 5.0 0.00 0.00 0.00 60 1006.9
20260901032832 85 180 0.0 0.0 0.00 0.00 0.00 59 1006.9
20260901031833 85 164 1.0 3.0 0.00 0.00 0.00 57 1006.9
20260901030932 85 158 2.0 5.0 0.00 0.00 0.00 56 1006.2
20260901025933 86 142 1.0 5.0 0.00 0.00 0.00 54 1006.2
20260901024933 86 135 0.0 0.0 0.00 0.00 0.00 53 1006.2
20260901024033 87 146 3.0 5.0 0.00 0.00 0.00 51 1005.9
20260901023036 87 122 2.0 4.0 0.00 0.00 0.00 49 1005.6
20260901022133 87 90 0.0 0.0 0.00 0.00 0.00 47 1005.2
20260901021232 87 90 0.0 0.0 0.00 0.00 0.00 47 1004.9
20260901020233 88 90 0.0 0.0 0.00 0.00 0.00 46 1004.9
20260901015236 88 90 0.0 0.0 0.00 0.00 0.00 46 1004.5
20260901014332 89 90 0.0 0.0 0.00 0.00 0.00 45 1004.5
20260901013334 89 90 0.0 0.0 0.00 0.00 0.00 44 1004.5
20260901012433 90 90 0.0 1.0 0.00 0.00 0.00 43 1004.5
20260901011435 90 90 0.0 0.0 0.00 0.00 0.00 42 1004.2
20260901010532 91 90 0.0 0.0 0.00 0.00 0.00 42 1004.2
20260901005535 91 90 0.0 1.0 0.00 0.00 0.00 41 1004.2
20260901004633 92 90 1.0 2.0 0.00 0.00 0.00 40 1004.2
20260901003633 93 112 0.0 2.0 0.00 0.00 0.00 39 1003.8
20260901002634 94 168 1.0 3.0 0.00 0.00 0.00 38 1003.5
20260901001634 94 135 0.0 1.0 0.00 0.00 0.00 38 1003.5
20260901000633 95 90 1.0 4.0 0.00 0.00 0.00 36 1003.5
20260831234635 96 143 1.0 4.0 0.00 0.00 0.00 37 1003.2
20260831233635 97 180 0.0 4.0 0.00 0.00 0.00 40 1003.5
20260831232634 96 180 0.0 5.0 0.00 0.00 0.00 39 1003.5
20260831230633 97 74 1.0 5.0 0.00 0.00 0.00 38 1003.5
20260831225733 97 135 0.0 0.0 0.00 0.00 0.00 39 1003.5
20260831224734 97 135 0.0 2.0 0.00 0.00 0.00 39 1003.3
20260831223832 99 158 1.0 5.0 0.00 0.00 0.00 37 1003.2
20260831222931 98 233 0.0 4.0 0.00 0.00 0.00 39 1003.5
20260831221933 98 158 3.0 7.0 0.00 0.00 0.00 36 1003.2
20260831220933 98 174 2.0 5.0 0.00 0.00 0.00 38 1003.5
20260831215933 98 199 4.0 8.0 0.00 0.00 0.00 39 1003.5
20260831214933 98 127 1.0 3.0 0.00 0.00 0.00 38 1003.5
20260831213934 98 180 3.0 7.0 0.00 0.00 0.00 35 1003.8
20260831212932 99 177 2.0 5.0 0.00 0.00 0.00 38 1003.8
20260831211934 99 360 0.0 2.0 0.00 0.00 0.00 40 1003.8
20260831205933 97 90 0.0 4.0 0.00 0.00 0.00 41 1004.5
20260831205032 95 180 0.0 0.0 0.00 0.00 0.00 43 1004.9
20260831203034 97 265 0.0 2.0 0.00 0.00 0.00 41 1004.9
20260831202133 96 179 0.0 2.0 0.00 0.00 0.00 43 1005.6
20260831201133 96 135 1.0 3.0 0.00 0.00 0.00 42 1005.6
20260831200132 96 180 0.0 2.0 0.00 0.00 0.00 43 1005.6
20260831195132 96 97 1.0 4.0 0.00 0.00 0.00 43 1005.6
20260831194232 96 160 1.0 4.0 0.00 0.00 0.00 44 1005.6
20260831193233 96 180 1.0 3.0 0.00 0.00 0.00 45 1005.9
20260831193135 96 158 0.0 1.0 0.00 0.00 0.00 45 1005.9